Regional Weather Roundup
Issued by NWS Jackson, KY

Home | Current Version | Previous Version | Graphics & Text | Print | Product List | Glossary On
Versions: 1 2 3 4 5 6 7 8 9 10 11 12 13 14 15 16 17 18 19 20 21 22 23 24 25 26 27 28 29 30 31 32 33 34 35 36 37 38 39 40 41 42 43 44 45 46 47 48 49 50
000
ASUS43 KJKL 291710
RWRJKL

EAST KENTUCKY HOURLY WEATHER ROUNDUP
NATIONAL WEATHER SERVICE JACKSON KY
100 PM EDT FRI MAY 29 2015

NOTE: "FAIR" INDICATES FEW OR NO CLOUDS BELOW 12,000 FEET WITH
NO SIGNIFICANT WEATHER AND/OR OBSTRUCTIONS TO VISIBILITY.

* THESE REPORTS ARE NOT UNDER NWS QUALITY CONTROL AND MAY NOT
  REPORT WEATHER SUCH AS PRECIPITATION AND FOG.

KYZ079-080-083-085-087-088-110-112-115-119-120-291800
...EASTERN KENTUCKY...

CITY           SKY/WX    TMP DP  RH WIND       PRES   REMARKS
JACKSON        MOSUNNY   78  64  61 VRB6      30.23S
LONDON         PTSUNNY   81  61  50 SW10      30.21F
SOMERSET*      LGT RAIN  73  64  73 SW6       30.21F
MONTICELLO*    MOSUNNY   82  67  60 S12       30.22F
MIDDLESBORO*   PTSUNNY   82  65  57 S5        30.23S
HARLAN APT*    PTSUNNY   81  63  54 CALM      30.24F
HAZARD APT*    MOSUNNY   82  61  47 S10       30.22F
BLACK MTN*       N/A     72  61  68 SE3         N/A
PIKEVILLE APT* PTSUNNY   75  66  73 SE5       30.24F
BIG SANDY*     MOSUNNY   81  67  63 SW5       30.23F
MOREHEAD APT*  PTSUNNY   81  64  57 SW14      30.22S
$$

KYZ035-036-041-042-044-050-067-078-099-291800
...CENTRAL KENTUCKY...

CITY           SKY/WX    TMP DP  RH WIND       PRES   REMARKS
MT STERLING*   PTSUNNY   81  68  65 SW8       30.21F
FLEMING/MASON* CLOUDY   N/A N/A N/A SW12      30.21S
DANVILLE*      PTSUNNY   81  64  57 SW14      30.21S
RICHMOND*      PTSUNNY   81  66  61 SW10      30.20S
LEXINGTON      PTSUNNY   80  66  62 S15G23    30.19F
FRANKFORT      PTSUNNY   79  66  64 SW9       30.18S
$$

KYZ091>093-OHZ055-061-077-WVZ005-015-034-035-042-291800
...SOUTHERN OHIO/WEST VIRGINIA...

CITY           SKY/WX    TMP DP  RH WIND       PRES   REMARKS
COVINGTON      CLOUDY    77  66  68 S9G17     30.18S
COLUMBUS       CLOUDY    80  64  58 S8        30.17R
DAYTON         CLOUDY    79  67  66 S15       30.17S
WILMINGTON     PTSUNNY   79  64  60 SW13      30.18R
HUNTINGTON     PTSUNNY   83  66  56 SW7       30.19F
CHARLESTON     PTSUNNY   80  65  59 S6        30.20F
PINEVILLE*     PTSUNNY   83  65  54 MISG      30.30S
BECKLEY        PTSUNNY   77  60  55 S8        30.28F
BLUEFIELD      MOSUNNY   80  60  50 VRB5G16   30.31F
$$

VAZ002-007-008-TNZ017-027-036-066-071-291800
...SOUTHWEST VIRGINIA/EAST TENNESSEE...

CITY           SKY/WX    TMP DP  RH WIND       PRES   REMARKS
WISE*          PTSUNNY   77  59  53 S5        30.31F
JONESVILLE*    PTSUNNY   81  63  54 SE3       30.26F
ABINGDON*      MOSUNNY   80  63  54 CALM      30.27F
BRISTOL        PTSUNNY   83  60  45 VRB6      30.24F
KNOXVILLE      PTSUNNY   84  62  47 SW8       30.20F
OAK RIDGE      MOSUNNY   83  63  50 SW7       30.22F
CROSSVILLE     CLOUDY    73  63  70 S9        30.26S
NASHVILLE      CLOUDY    77  67  71 S9        30.18F
$$

...KEY TO REMARKS...
VSB - VISIBILITY IN MILES
WCI - WIND CHILL INDEX
HX  - HEAT INDEX

$$



USA.gov is the U.S. government's official web portal to all federal, state and local government web resources and services.